www.pogodaiklimat.ru

Погода и климат >> Архив погоды >> Канада >> Stefansson Island


ПОГОДА в Stefansson Island

  • Прогноз погоды в Stefansson Island
  • Монитор погоды в Stefansson Island
  • Климат города

АРХИВ ПОГОДЫ в Stefansson Island

Время (UTC), дата Ветер
(напр.,м/с)
 
Видим.   Явления Облачность Т
(С)
Тd
(С)
f
(%)
Тe
(С)
Тes
(С)
Комфортность P
(гПа)
Po
(гПа)
Тmin
(С)
Tmax
(С)
R
(мм)
R24
(мм)
S
(см)
18 18.05 СЗ 10 н/о н/о -8.9 -12.3 76 -19 -19 1012.8 1011.3 -13.7 -8.5
21 18.05 СЗ 10 н/о н/о -8.7 -11.5 80 -19 -19 1012.7 1011.2
00 19.05 СЗ 9 н/о н/о -8.4 -10.8 83 -18 -18 1012.0 1010.5 -13.7 -8.0
03 19.05 СЗ 9 н/о н/о -8.5 -10.3 87 -18 -18 1011.5 1010.0
06 19.05 СЗ 9 н/о н/о -8.7 -10.2 89 -19 -19 1011.5 1010.0 -13.7 -8.0 16
09 19.05 СЗ 10 н/о н/о -9.0 -10.7 87 -19 -19 1012.1 1010.6
12 19.05 СЗ 8 н/о н/о -9.1 -10.9 87 -19 -19 1012.3 1010.8 -9.2 -8.0
15 19.05 СЗ 9 н/о н/о -9.3 -11.8 82 -19 -19 1012.5 1011.0
18 19.05 СЗ 9 н/о н/о -8.4 -12.0 75 -18 -18 1012.4 1010.9 -9.4 -7.9
21 19.05 СЗ 8 н/о н/о -7.2 -11.0 74 -16 -16 1012.2 1010.7
00 20.05 СЗ 7 н/о н/о -8.5 -11.3 80 -18 -18 1011.9 1010.4 -9.4 -7.1
03 20.05 СЗ 7 н/о н/о -8.3 -10.4 85 -17 -17 1011.0 1009.5
06 20.05 СЗ 6 н/о н/о -8.2 -9.4 91 -16 -16 1010.8 1009.3 -9.4 -7.1 13
09 20.05 СЗ 6 н/о н/о -7.6 -8.8 91 -16 -16 1011.0 1009.5
12 20.05 СЗ 5 н/о н/о -7.1 -9.1 86 -14 -14 1011.7 1010.2 -8.6 -7.1
15 20.05 С 7 н/о н/о -6.1 -8.5 83 -14 -14 1012.1 1010.6
18 20.05 СЗ 6 н/о н/о -5.6 -7.7 85 -14 -14 1012.9 1011.4 -8.6 -5.6
21 20.05 СЗ 8 н/о н/о -5.2 -7.6 83 -14 -14 1013.6 1012.1
00 21.05 С 4 н/о н/о -4.6 -7.4 81 -11 -11 1014.7 1013.2 -8.2 -4.6
03 21.05 С 7 н/о н/о -6.1 -7.5 90 -15 -15 1015.4 1013.9
06 21.05 С 5 н/о н/о -7.5 -9.2 88 -15 -15 1016.4 1014.9 -8.2 -4.6 21
09 21.05 СЗ 4 н/о н/о -8.5 -10.5 85 -15 -15 1017.4 1015.9
12 21.05 СЗ 5 н/о н/о -8.5 -11.0 82 -16 -16 1017.9 1016.4 -8.7 -4.6
15 21.05 СЗ 5 н/о н/о -8.8 -11.9 78 -17 -17 1018.4 1016.9
18 21.05 СЗ 5 н/о н/о -8.4 -11.8 76 -16 -16 1018.9 1017.4 -8.9 -7.5
21 21.05 С 3 н/о н/о -8.2 -12.0 74 -14 -14 1019.6 1018.1
00 22.05 С 3 н/о н/о -8.1 -11.5 76 -14 -14 1020.0 1018.5 -8.9 -8.0
03 22.05 С 3 н/о н/о -8.9 -11.7 80 -14 -14 1020.3 1018.8
06 22.05 СВ 1 н/о н/о -10.1 -11.5 89 -13 -13 1020.6 1019.1 -10.3 -7.5
09 22.05 С 1 н/о н/о -10.8 -12.0 91 -13 -13 1021.0 1019.5
12 22.05 СЗ 2 н/о н/о -10.6 -12.0 89 -14 -14 1021.2 1019.7 -11.0 -7.5
15 22.05 З 2 н/о н/о -9.6 -13.5 73 -14 -14 1020.8 1019.3
18 22.05 З 2 н/о н/о -7.8 -12.7 68 -12 -12 1020.0 1018.5 -11.0 -7.5
21 22.05 З 3 н/о н/о -6.7 -10.0 77 -12 -12 1019.2 1017.7
00 23.05 СЗ 3 н/о н/о -7.6 -9.9 84 -13 -13 1018.6 1017.1 -11.0 -6.2
03 23.05 З 5 н/о н/о -8.9 -10.4 89 -16 -16 1017.6 1016.1
06 23.05 З 4 н/о н/о -10.7 -12.0 90 -18 -18 1016.7 1015.2 -11.0 -6.2
09 23.05 З 3 н/о н/о -10.8 -11.9 92 -17 -17 1016.2 1014.7
12 23.05 СЗ 2 н/о н/о -12.4 -14.8 82 -17 -17 1015.6 1014.1 -12.5 -6.2
15 23.05 С 2 н/о н/о -10.5 -14.0 75 -15 -15 1015.3 1013.8
18 23.05 н/о н/о -8.5 -12.7 72 1015.1 1013.6 -12.7 -8.3
21 23.05 С 4 н/о н/о -7.2 -11.1 74 -14 -14 1015.4 1013.9
00 24.05 С 6 н/о н/о -5.5 -8.1 82 -13 -13 1015.9 1014.4 -12.7 -5.3
03 24.05 СЗ 5 н/о н/о -6.3 -8.9 82 -13 -13 1016.5 1015.0
06 24.05 С 7 н/о н/о -6.5 -7.8 90 -15 -15 1017.7 1016.2 -12.7 -5.3 6
09 24.05 С 8 н/о н/о -5.9 -7.7 87 -15 -15 1018.6 1017.1
12 24.05 СЗ 4 н/о н/о -8.4 -10.9 82 -15 -15 1020.1 1018.6 -8.4 -5.3
15 24.05 З 4 н/о н/о -6.9 -11.0 73 -13 -13 1021.4 1019.9
18 24.05 З 5 н/о н/о -4.4 -8.8 71 -11 -11 1021.9 1020.4 -8.5 -4.3
21 24.05 З 7 н/о н/о -3.1 -7.0 74 -11 -11 1022.2 1020.7
00 25.05 З 5 н/о н/о -3.2 -7.0 75 -10 -10 1022.0 1020.5 -8.4 -2.6
03 25.05 З 6 н/о н/о -6.2 -8.6 83 -14 -14 1021.8 1020.3
06 25.05 З 6 н/о н/о -9.4 -10.8 90 -18 -18 1021.4 1019.9 -9.5 -2.6 9
09 25.05 З 4 н/о н/о -7.7 -8.3 95 -14 -14 1021.2 1019.7
12 25.05 З 2 н/о н/о -7.8 -8.8 93 -12 -12 1020.5 1019.0 -9.5 -2.6

 

Местоположение метеостанции Stefansson Island (Канада): широта 73.77 долгота -105.20 высота над уровнем моря 11 м.

В архиве по умолчанию представлена погода в Stefansson Island за последнюю неделю. Архивные данные за месяц целиком и за предыдущие месяцы, начиная с января 2011 года, Вы можете получить, выбрав интересующий диапазон дат из раскрывающегося списка и нажав кнопку "Ввод!".


*Определитесь, кто Вы:
робот инопланетянин человек

Внимание! Время в таблицах - всемирное. Для получения местного времени необходимо прибавить поправку, которая в Stefansson Island равна -7 ч.

Смотрите также архив погоды в соседних городах и на ближайших метеорологических станциях:

Погода в Resolute Airport (Канада) (326 км)
Погода в Resolute Cs (Канада) (326 км)
Погода в Aulvik Ntl Park (Канада) (453 км)
Погода в Mould Bay Cs (Канада) (488 км)
Погода в Cambridge Bay Gsn (Канада) (519 км)
Погода в Cambridge Bay Arpt (Канада) (519 км)
Погода в Cape Peel West (Канада) (535 км)
Погода в Holman (Канада) (542 км)
Погода в Isachsen (aut) (Канада) (559 км)
Погода в Spence bay (Канада) (619 км)

Пояснения к столбцам:

Ветер - указаны скорость ветра в м/с - средняя за 10 мин, порывы в срок и между сроками (в фигурных скобках) и направление, откуда дует ветер: С - северный, СВ - северо-восточный, В - восточный, ЮВ - юго-восточный, Ю - южный, ЮЗ - юго-западный, З - западный, СЗ - северо-западный.
Видимость - горизонтальная дальность видимости в метрах или километрах. При видимости от 1 до 10 км при отсутствии осадков обычно наблюдается дымка, при ухудшении видимости до 1 км и менее - туман. В сухую погоду видимость может ухудшаться дымом, пылью или мглою.
Явления - указаны атмосферные явления, наблюдавшиеся в срок или в последний час перед сроком; фигурными скобками обозначены явления, наблюдавшиеся между сроками (за 1-3 часа до срока); квадратными скобками обозначены град или гололедные отложения с указанием их диаметра в мм.
Облачность - указаны через наклонную черту общая и нижняя облачность в баллах и высота нижней границы облаков в метрах; квадратными скобками обозначены формы облаков: Ci - перистые, Cs - перисто-слоистые, Cc - перисто-кучевые, Ac - высококучевые, As - высокослоистые, Sc - слоисто-кучевые, Ns - слоисто-дождевые, Cu - кучевые, Cb - кучево-дождевые. Подробнее классификацию облаков см. в Атласе облаков (PDF).
T - Температура воздуха - температура, измеренная на высоте 2 м над землей.
Td - Температура точки росы - температура, при понижении до которой содержащийся в воздухе водяной пар достигнет насыщения.
f - Относительная влажность воздуха - влажноcть воздуха, измеренная на высоте 2 м над землей.
Te - Эффективная температура - температура, которую ощущает одетый по сезону человек в тени. Характеристика душности погоды. При расчете учитывается влияние влажности воздуха и скорости ветра на теплоощущения человека.
Tes - Эффективная температура на солнце - температура, которую ощущает человек, с поправкой на солнечный нагрев. Характеристика знойности погоды. Зависит от высоты солнца над горизонтом, облачности и скорости ветра. Ночью, в пасмурную погоду, а также при ветре 12 м/с и более поправка равна нулю.
P - Атмосферное давление - приведенное к уровню моря атмосферное давление.
Po - Атмосферное давление - измеренное на уровне метеостанции атмосферное давление.
Tmin - Минимальная температура - минимум температуры воздуха на высоте 2 м над землей.
Tmax - Максимальная температура - максимум температуры воздуха на высоте 2 м над землей.
R - Количество осадков - Количество выпавших осадков за период времени, мм. При наведении курсора мыши на число - период времени, за который выпало указанное количество осадков.
R24 - Количество осадков - Количество выпавших осадков за 24 часа, мм.
S - Снежный покров - Высота снежного покрова, см. При наведении курсора мыши на число - состояние снежного покрова и степень покрытия местности в баллах.